Time,TemperatureF,DewpointF,PressureIn,WindDirection,WindDirectionDegrees,WindSpeedMPH,WindSpeedGustMPH,Humidity,HourlyPrecipIn,Conditions,Clouds,dailyrainin,SolarRadiationWatts/m^2,SoftwareType,DateUTC
2015-07-02 00:00:00,67.4,65.3,29.95,North,355,0.0,0.0,93,0.00,,FEW070,0.00,0.00,VWS V15.00,2015-07-02 04:00:00,
2015-07-02 00:04:00,67.3,65.2,29.95,North,355,0.0,0.0,93,0.00,,FEW070,0.00,0.00,VWS V15.00,2015-07-02 04:04:00,
2015-07-02 00:09:00,67.2,65.1,29.95,North,355,0.0,0.0,93,0.00,,FEW070,0.00,0.00,VWS V15.00,2015-07-02 04:09:00,
2015-07-02 00:14:00,67.2,65.1,29.95,North,355,0.0,0.0,93,0.00,,FEW070,0.00,0.00,VWS V15.00,2015-07-02 04:14:00,
2015-07-02 00:19:00,67.3,65.5,29.95,North,355,0.0,0.0,94,0.00,,FEW070,0.00,0.00,VWS V15.00,2015-07-02 04:19:00,
2015-07-02 00:24:00,67.3,65.5,29.95,North,355,0.0,0.0,94,0.00,,FEW070,0.00,0.00,VWS V15.00,2015-07-02 04:24:00,
2015-07-02 00:29:00,67.4,65.6,29.95,North,355,0.0,0.0,94,0.00,,FEW070,0.00,0.00,VWS V15.00,2015-07-02 04:29:00,
2015-07-02 00:30:00,67.4,65.6,29.95,North,355,0.0,0.0,94,0.00,,FEW070,0.00,0.00,VWS V15.00,2015-07-02 04:30:00,
2015-07-02 00:34:00,67.5,65.7,29.95,North,355,0.0,0.0,94,0.00,,FEW070,0.00,0.00,VWS V15.00,2015-07-02 04:34:00,
2015-07-02 00:39:00,67.5,65.7,29.95,North,355,0.0,0.0,94,0.00,,FEW070,0.00,0.00,VWS V15.00,2015-07-02 04:39:00,
2015-07-02 00:44:00,67.6,66.1,29.95,North,355,0.0,0.0,95,0.00,,FEW070,0.00,0.00,VWS V15.00,2015-07-02 04:44:00,
2015-07-02 00:49:00,67.6,66.1,29.95,North,355,0.0,0.0,95,0.00,,FEW070,0.00,0.00,VWS V15.00,2015-07-02 04:49:00,
2015-07-02 00:55:00,67.6,66.1,29.95,North,355,0.0,0.0,95,0.00,,FEW070,0.00,0.00,VWS V15.00,2015-07-02 04:55:00,
2015-07-02 01:00:00,67.5,66.0,29.95,North,355,0.0,0.0,95,0.00,,FEW070,0.00,0.00,VWS V15.00,2015-07-02 05:00:00,
2015-07-02 01:05:00,67.5,66.0,29.95,North,355,0.0,0.0,95,0.00,,FEW070,0.00,0.00,VWS V15.00,2015-07-02 05:05:00,
2015-07-02 01:10:00,67.5,66.0,29.95,North,355,0.0,0.0,95,0.00,,FEW070,0.00,0.00,VWS V15.00,2015-07-02 05:10:00,
2015-07-02 01:15:00,67.5,66.0,29.94,North,355,0.0,0.0,95,0.00,,FEW070,0.00,0.00,VWS V15.00,2015-07-02 05:15:00,
2015-07-02 01:20:00,67.4,65.9,29.94,North,355,0.0,0.0,95,0.00,,FEW070,0.00,0.00,VWS V15.00,2015-07-02 05:20:00,
2015-07-02 01:25:00,67.5,66.0,29.94,North,355,0.0,0.0,95,0.00,,FEW070,0.00,0.00,VWS V15.00,2015-07-02 05:25:00,
2015-07-02 01:30:00,67.5,66.3,29.94,SSE,154,0.0,0.0,96,0.00,,FEW070,0.00,0.00,VWS V15.00,2015-07-02 05:30:00,
2015-07-02 01:35:00,67.6,66.4,29.94,SE,140,0.0,0.0,96,0.00,,FEW070,0.00,0.00,VWS V15.00,2015-07-02 05:35:00,
2015-07-02 01:40:00,67.6,66.4,29.94,SE,140,0.0,0.0,96,0.00,,FEW070,0.00,0.00,VWS V15.00,2015-07-02 05:40:00,
2015-07-02 01:45:00,67.7,66.5,29.94,SE,140,0.0,0.0,96,0.00,,FEW070,0.00,0.00,VWS V15.00,2015-07-02 05:45:00,
2015-07-02 01:50:00,67.7,66.5,29.94,SE,140,0.0,0.0,96,0.00,,FEW070,0.00,0.00,VWS V15.00,2015-07-02 05:50:00,
2015-07-02 01:55:00,67.8,66.6,29.93,SE,140,0.0,0.0,96,0.00,,FEW070,0.00,0.00,VWS V15.00,2015-07-02 05:55:00,
2015-07-02 02:00:00,67.8,66.6,29.93,SE,140,0.0,0.0,96,0.00,,FEW070,0.00,0.00,VWS V15.00,2015-07-02 06:00:00,
2015-07-02 02:05:00,67.9,66.7,29.93,SE,140,0.0,0.0,96,0.00,,FEW070,0.00,0.00,VWS V15.00,2015-07-02 06:05:00,
2015-07-02 02:11:00,67.9,66.7,29.93,SE,140,0.0,0.0,96,0.00,,FEW070,0.00,0.00,VWS V15.00,2015-07-02 06:11:00,
2015-07-02 02:16:00,67.9,66.7,29.93,SE,140,0.0,0.0,96,0.00,,FEW070,0.00,0.00,VWS V15.00,2015-07-02 06:16:00,
2015-07-02 02:21:00,68.0,66.8,29.93,SE,140,0.0,0.0,96,0.00,,FEW070,0.00,0.00,VWS V15.00,2015-07-02 06:21:00,
2015-07-02 02:26:00,68.0,66.8,29.93,SE,140,0.0,0.0,96,0.00,,FEW070,0.00,0.00,VWS V15.00,2015-07-02 06:26:00,
2015-07-02 02:30:00,68.0,66.8,29.93,SE,140,0.0,0.0,96,0.00,,FEW070,0.00,0.00,VWS V15.00,2015-07-02 06:30:00,
2015-07-02 02:31:00,68.0,66.8,29.93,SE,140,0.0,0.0,96,0.00,,FEW070,0.00,0.00,VWS V15.00,2015-07-02 06:31:00,
2015-07-02 02:36:00,68.0,66.8,29.93,SE,140,0.0,0.0,96,0.00,,FEW070,0.00,0.00,VWS V15.00,2015-07-02 06:36:00,
2015-07-02 02:41:00,68.0,66.8,29.93,SE,140,0.0,0.0,96,0.00,,FEW070,0.00,0.00,VWS V15.00,2015-07-02 06:41:00,
2015-07-02 02:46:00,68.0,66.5,29.93,SE,140,0.0,0.0,95,0.00,,FEW070,0.00,0.00,VWS V15.00,2015-07-02 06:46:00,
2015-07-02 02:51:00,67.9,66.4,29.93,SE,140,0.0,0.0,95,0.00,,FEW070,0.00,0.00,VWS V15.00,2015-07-02 06:51:00,
2015-07-02 02:56:00,67.9,66.4,29.93,SE,140,0.0,0.0,95,0.00,,FEW070,0.00,0.00,VWS V15.00,2015-07-02 06:56:00,
2015-07-02 03:00:00,67.8,66.3,29.93,SE,140,0.0,0.0,95,0.00,,FEW070,0.00,0.00,VWS V15.00,2015-07-02 07:00:00,
2015-07-02 03:01:00,67.8,66.3,29.92,SE,140,0.0,0.0,95,0.00,,FEW070,0.00,0.00,VWS V15.00,2015-07-02 07:01:00,
2015-07-02 03:06:00,67.7,66.2,29.93,SE,140,0.0,0.0,95,0.00,,FEW070,0.00,0.00,VWS V15.00,2015-07-02 07:06:00,
2015-07-02 03:11:00,67.7,66.5,29.92,SE,140,0.0,0.0,96,0.00,,FEW070,0.00,0.00,VWS V15.00,2015-07-02 07:11:00,
2015-07-02 03:16:00,67.7,66.5,29.93,SE,140,0.0,0.0,96,0.00,,FEW070,0.00,0.00,VWS V15.00,2015-07-02 07:16:00,
2015-07-02 03:21:00,67.6,66.4,29.93,SE,140,0.0,0.0,96,0.00,,FEW070,0.00,0.00,VWS V15.00,2015-07-02 07:21:00,
2015-07-02 03:27:00,67.7,66.5,29.92,SE,140,0.0,0.0,96,0.00,,FEW070,0.00,0.00,VWS V15.00,2015-07-02 07:27:00,
2015-07-02 03:30:00,67.7,66.5,29.92,SE,140,0.0,0.0,96,0.00,,FEW070,0.00,0.00,VWS V15.00,2015-07-02 07:30:00,
2015-07-02 03:32:00,67.7,66.5,29.92,SE,140,0.0,0.0,96,0.00,,FEW070,0.00,0.00,VWS V15.00,2015-07-02 07:32:00,
2015-07-02 03:37:00,67.5,66.3,29.92,SE,140,0.0,0.0,96,0.00,,FEW070,0.00,0.00,VWS V15.00,2015-07-02 07:37:00,
2015-07-02 03:42:00,67.5,66.3,29.92,SE,140,0.0,0.0,96,0.00,,FEW070,0.00,0.00,VWS V15.00,2015-07-02 07:42:00,
2015-07-02 03:47:00,67.4,66.2,29.92,SE,140,0.0,0.0,96,0.00,,FEW070,0.00,0.00,VWS V15.00,2015-07-02 07:47:00,
2015-07-02 03:52:00,67.4,66.2,29.91,SE,140,0.0,0.0,96,0.00,,FEW070,0.00,0.00,VWS V15.00,2015-07-02 07:52:00,
2015-07-02 03:57:00,67.5,66.3,29.91,SE,140,0.0,0.0,96,0.00,,FEW070,0.00,0.00,VWS V15.00,2015-07-02 07:57:00,
2015-07-02 04:00:00,67.5,66.3,29.91,SE,140,0.0,0.0,96,0.00,,FEW070,0.00,0.00,VWS V15.00,2015-07-02 08:00:00,
2015-07-02 04:02:00,67.5,66.3,29.91,SE,140,0.0,0.0,96,0.00,,FEW070,0.00,0.00,VWS V15.00,2015-07-02 08:02:00,
2015-07-02 04:07:00,67.5,66.3,29.90,SE,140,0.0,0.0,96,0.00,,FEW070,0.00,0.00,VWS V15.00,2015-07-02 08:07:00,
2015-07-02 04:12:00,67.5,66.3,29.90,SE,140,0.0,0.0,96,0.00,,FEW070,0.00,0.00,VWS V15.00,2015-07-02 08:12:00,
2015-07-02 04:17:00,67.6,66.7,29.90,SE,140,0.0,0.0,97,0.00,,FEW070,0.00,0.00,VWS V15.00,2015-07-02 08:17:00,
2015-07-02 04:22:00,67.6,66.7,29.90,SE,140,0.0,0.0,97,0.00,,FEW070,0.00,0.00,VWS V15.00,2015-07-02 08:22:00,
2015-07-02 04:27:00,67.5,66.6,29.90,SE,140,0.0,0.0,97,0.00,,FEW070,0.00,0.00,VWS V15.00,2015-07-02 08:27:00,
2015-07-02 04:30:00,67.6,66.7,29.90,SE,140,0.0,0.0,97,0.00,,FEW070,0.00,0.00,VWS V15.00,2015-07-02 08:30:00,
2015-07-02 04:33:00,67.6,66.7,29.90,SE,140,0.0,0.0,97,0.00,,FEW070,0.00,0.00,VWS V15.00,2015-07-02 08:33:00,
2015-07-02 04:38:00,67.5,66.6,29.90,SE,140,0.0,0.0,97,0.00,,FEW070,0.00,0.00,VWS V15.00,2015-07-02 08:38:00,
2015-07-02 04:43:00,67.5,66.6,29.90,SE,140,0.0,0.0,97,0.00,,FEW070,0.00,0.00,VWS V15.00,2015-07-02 08:43:00,
2015-07-02 04:48:00,67.5,66.6,29.90,SE,140,0.0,0.0,97,0.00,,FEW070,0.00,0.00,VWS V15.00,2015-07-02 08:48:00,
2015-07-02 04:53:00,67.4,66.5,29.90,SE,140,0.0,0.0,97,0.00,,FEW070,0.00,0.00,VWS V15.00,2015-07-02 08:53:00,
2015-07-02 04:58:00,67.5,66.6,29.90,SE,140,0.0,0.0,97,0.00,,FEW070,0.00,0.00,VWS V15.00,2015-07-02 08:58:00,
2015-07-02 05:00:00,67.5,66.6,29.90,SE,140,0.0,0.0,97,0.00,,FEW070,0.00,0.00,VWS V15.00,2015-07-02 09:00:00,
2015-07-02 05:03:00,67.5,66.6,29.89,SE,140,0.0,0.0,97,0.00,,FEW070,0.00,0.00,VWS V15.00,2015-07-02 09:03:00,
2015-07-02 05:08:00,67.4,66.5,29.89,SE,140,0.0,0.0,97,0.00,,FEW070,0.00,0.00,VWS V15.00,2015-07-02 09:08:00,
2015-07-02 05:13:00,67.4,66.5,29.90,SE,140,0.0,0.0,97,0.00,,FEW070,0.00,0.00,VWS V15.00,2015-07-02 09:13:00,
2015-07-02 05:18:00,67.5,66.6,29.90,SE,140,0.0,0.0,97,0.00,,FEW070,0.00,0.00,VWS V15.00,2015-07-02 09:18:00,
2015-07-02 05:23:00,67.4,66.5,29.90,SE,140,0.0,0.0,97,0.00,,FEW070,0.00,0.00,VWS V15.00,2015-07-02 09:23:00,
2015-07-02 05:28:00,67.4,66.5,29.90,SE,140,0.0,0.0,97,0.00,,FEW070,0.00,0.00,VWS V15.00,2015-07-02 09:28:00,
2015-07-02 05:30:00,67.4,66.5,29.90,SE,140,0.0,0.0,97,0.00,,FEW070,0.00,0.00,VWS V15.00,2015-07-02 09:30:00,
2015-07-02 05:33:00,67.4,66.5,29.90,SE,140,0.0,0.0,97,0.00,,FEW070,0.00,0.00,VWS V15.00,2015-07-02 09:33:00,
2015-07-02 05:38:00,67.4,66.5,29.90,SE,140,0.0,0.0,97,0.00,,FEW070,0.00,0.00,VWS V15.00,2015-07-02 09:38:00,
2015-07-02 05:44:00,67.4,66.5,29.90,SE,140,0.0,0.0,97,0.00,,FEW070,0.00,0.00,VWS V15.00,2015-07-02 09:44:00,
2015-07-02 05:49:00,67.4,66.5,29.90,SE,140,0.0,0.0,97,0.00,,FEW070,0.00,0.00,VWS V15.00,2015-07-02 09:49:00,
2015-07-02 05:54:00,67.4,66.5,29.91,SE,140,0.0,0.0,97,0.00,,FEW070,0.00,0.00,VWS V15.00,2015-07-02 09:54:00,
2015-07-02 05:59:00,67.3,66.4,29.91,SE,140,0.0,0.0,97,0.00,,FEW070,0.00,0.00,VWS V15.00,2015-07-02 09:59:00,
2015-07-02 06:00:00,67.3,66.4,29.91,SE,140,0.0,0.0,97,0.00,,FEW070,0.00,0.00,VWS V15.00,2015-07-02 10:00:00,
2015-07-02 06:04:00,67.3,66.4,29.91,SE,140,0.0,0.0,97,0.00,,FEW070,0.00,0.00,VWS V15.00,2015-07-02 10:04:00,
2015-07-02 06:09:00,67.3,66.4,29.91,SE,140,0.0,0.0,97,0.00,,FEW070,0.00,0.00,VWS V15.00,2015-07-02 10:09:00,
2015-07-02 06:14:00,67.2,66.3,29.91,SE,140,0.0,0.0,97,0.00,,FEW070,0.00,5.00,VWS V15.00,2015-07-02 10:14:00,
2015-07-02 06:19:00,67.2,66.3,29.91,SE,140,0.0,0.0,97,0.00,,FEW070,0.00,5.00,VWS V15.00,2015-07-02 10:19:00,
2015-07-02 06:24:00,67.2,66.6,29.91,SE,140,0.0,0.0,98,0.00,,FEW070,0.00,9.00,VWS V15.00,2015-07-02 10:24:00,
2015-07-02 06:29:00,67.1,66.5,29.91,SE,140,0.0,0.0,98,0.00,,FEW070,0.00,9.00,VWS V15.00,2015-07-02 10:29:00,
2015-07-02 06:30:00,67.1,66.5,29.91,SE,140,0.0,0.0,98,0.00,,FEW070,0.00,9.00,VWS V15.00,2015-07-02 10:30:00,
2015-07-02 06:34:00,67.0,66.1,29.91,SE,140,0.0,0.0,97,0.00,,FEW070,0.00,11.00,VWS V15.00,2015-07-02 10:34:00,
2015-07-02 06:39:00,67.0,66.1,29.91,SE,140,0.0,0.0,97,0.00,,FEW070,0.00,12.00,VWS V15.00,2015-07-02 10:39:00,
2015-07-02 06:44:00,66.9,66.0,29.91,SE,140,0.0,0.0,97,0.00,,FEW070,0.00,16.00,VWS V15.00,2015-07-02 10:44:00,
2015-07-02 06:49:00,67.0,66.1,29.91,SE,140,0.0,0.0,97,0.00,,FEW070,0.00,21.00,VWS V15.00,2015-07-02 10:49:00,
2015-07-02 06:54:00,67.0,66.4,29.91,SE,140,0.0,0.0,98,0.00,,FEW070,0.00,26.00,VWS V15.00,2015-07-02 10:54:00,
2015-07-02 07:00:00,67.0,66.4,29.91,SE,140,0.0,0.0,98,0.00,,FEW070,0.00,32.00,VWS V15.00,2015-07-02 11:00:00,
2015-07-02 07:05:00,67.0,66.4,29.91,SE,140,0.0,0.0,98,0.00,,FEW070,0.00,35.00,VWS V15.00,2015-07-02 11:05:00,
2015-07-02 07:10:00,67.0,66.4,29.91,SE,140,0.0,0.0,98,0.00,,FEW070,0.00,39.00,VWS V15.00,2015-07-02 11:10:00,
2015-07-02 07:15:00,66.9,66.3,29.90,SE,140,0.0,0.0,98,0.00,,FEW070,0.00,39.00,VWS V15.00,2015-07-02 11:15:00,
2015-07-02 07:20:00,66.9,66.3,29.90,SE,140,0.0,0.0,98,0.00,,FEW070,0.00,35.00,VWS V15.00,2015-07-02 11:20:00,
2015-07-02 07:25:00,67.0,66.4,29.90,SE,140,0.0,0.0,98,0.00,,FEW070,0.00,33.00,VWS V15.00,2015-07-02 11:25:00,
2015-07-02 07:30:00,67.1,66.5,29.90,SE,140,0.0,0.0,98,0.00,,FEW070,0.00,35.00,VWS V15.00,2015-07-02 11:30:00,
2015-07-02 07:35:00,67.2,66.6,29.90,SE,140,0.0,0.0,98,0.00,,FEW070,0.00,40.00,VWS V15.00,2015-07-02 11:35:00,
2015-07-02 07:40:00,67.4,67.1,29.90,WSW,244,0.0,0.0,99,0.00,,FEW070,0.00,44.00,VWS V15.00,2015-07-02 11:40:00,
2015-07-02 07:45:00,67.6,67.3,29.90,SE,142,1.5,0.0,99,0.00,,FEW070,0.00,51.00,VWS V15.00,2015-07-02 11:45:00,
2015-07-02 07:50:00,67.9,67.6,29.90,SSE,150,1.5,0.0,99,0.00,,FEW070,0.00,53.00,VWS V15.00,2015-07-02 11:50:00,
2015-07-02 07:55:00,68.1,67.8,29.90,SE,145,0.0,0.0,99,0.00,,FEW070,0.00,70.00,VWS V15.00,2015-07-02 11:55:00,
2015-07-02 08:00:00,68.3,68.0,29.90,SE,135,3.0,0.0,99,0.00,,FEW070,0.00,83.00,VWS V15.00,2015-07-02 12:00:00,
2015-07-02 08:05:00,68.4,68.1,29.90,SSE,157,3.0,0.0,99,0.00,,FEW070,0.00,84.00,VWS V15.00,2015-07-02 12:05:00,
2015-07-02 08:11:00,68.5,68.2,29.90,SSE,162,0.0,0.0,99,0.00,,FEW070,0.00,72.00,VWS V15.00,2015-07-02 12:11:00,
2015-07-02 08:16:00,68.6,68.3,29.90,SE,131,0.0,0.0,99,0.00,,FEW070,0.00,69.00,VWS V15.00,2015-07-02 12:16:00,
2015-07-02 08:21:00,68.8,68.5,29.90,SSE,149,0.0,0.0,99,0.00,,FEW070,0.00,67.00,VWS V15.00,2015-07-02 12:21:00,
2015-07-02 08:26:00,68.9,68.6,29.91,SSE,150,0.0,0.0,99,0.00,,FEW070,0.00,77.00,VWS V15.00,2015-07-02 12:26:00,
2015-07-02 08:47:00,69.3,69.0,29.91,ESE,123,1.5,0.0,99,0.00,,FEW070,0.00,90.00,VWS V15.00,2015-07-02 12:47:00,
2015-07-02 08:52:00,69.4,69.1,29.91,SSE,162,0.0,0.0,99,0.00,,FEW070,0.00,84.00,VWS V15.00,2015-07-02 12:52:00,
2015-07-02 08:57:00,69.5,68.9,29.91,SSE,148,0.0,0.0,98,0.00,,FEW070,0.00,86.00,VWS V15.00,2015-07-02 12:57:00,
2015-07-02 09:02:00,69.6,69.0,29.91,SE,145,0.0,0.0,98,0.00,,FEW070,0.00,88.00,VWS V15.00,2015-07-02 13:02:00,
2015-07-02 09:07:00,69.7,69.1,29.91,WSW,239,1.5,0.0,98,0.00,,FEW070,0.00,79.00,VWS V15.00,2015-07-02 13:07:00,
2015-07-02 09:12:00,69.8,69.2,29.91,WSW,239,3.0,0.0,98,0.00,,FEW070,0.00,65.00,VWS V15.00,2015-07-02 13:12:00,
2015-07-02 09:18:00,69.8,69.2,29.91,South,177,0.0,0.0,98,0.00,,FEW070,0.00,54.00,VWS V15.00,2015-07-02 13:18:00,
2015-07-02 09:23:00,69.8,69.2,29.91,SE,138,1.5,0.0,98,0.00,,FEW070,0.00,77.00,VWS V15.00,2015-07-02 13:23:00,
2015-07-02 09:28:00,69.9,69.3,29.91,SE,127,1.5,0.0,98,0.00,,FEW070,0.00,69.00,VWS V15.00,2015-07-02 13:28:00,
2015-07-02 09:33:00,69.9,69.3,29.91,South,172,0.0,0.0,98,0.00,,FEW070,0.00,76.00,VWS V15.00,2015-07-02 13:33:00,
2015-07-02 09:38:00,69.9,69.3,29.92,South,180,3.0,0.0,98,0.00,,FEW070,0.00,91.00,VWS V15.00,2015-07-02 13:38:00,
2015-07-02 09:43:00,69.9,69.3,29.91,SE,127,4.5,0.0,98,0.00,,FEW070,0.00,148.00,VWS V15.00,2015-07-02 13:43:00,
2015-07-02 09:48:00,70.0,69.4,29.91,SE,144,0.0,0.0,98,0.00,,FEW070,0.00,128.00,VWS V15.00,2015-07-02 13:48:00,
2015-07-02 09:53:00,70.1,69.5,29.92,East,100,0.0,0.0,98,0.00,,FEW070,0.00,109.00,VWS V15.00,2015-07-02 13:53:00,
2015-07-02 09:58:00,70.2,69.6,29.92,ESE,120,1.5,0.0,98,0.00,,FEW070,0.00,79.00,VWS V15.00,2015-07-02 13:58:00,
2015-07-02 10:03:00,70.2,69.3,29.92,SE,139,1.5,0.0,97,0.00,,FEW070,0.00,60.00,VWS V15.00,2015-07-02 14:03:00,
2015-07-02 10:08:00,70.2,69.3,29.92,SE,139,0.0,0.0,97,0.00,,FEW070,0.00,51.00,VWS V15.00,2015-07-02 14:08:00,
2015-07-02 10:13:00,70.3,69.4,29.92,SE,139,0.0,0.0,97,0.00,,FEW070,0.00,51.00,VWS V15.00,2015-07-02 14:13:00,
2015-07-02 10:24:00,70.5,69.6,29.92,SSE,148,0.0,0.0,97,0.00,,FEW070,0.00,102.00,VWS V15.00,2015-07-02 14:24:00,
2015-07-02 10:29:00,70.6,69.7,29.92,SSE,148,0.0,0.0,97,0.00,,FEW070,0.00,95.00,VWS V15.00,2015-07-02 14:29:00,
2015-07-02 10:34:00,70.6,69.7,29.92,SE,146,0.0,0.0,97,0.00,,FEW070,0.00,139.00,VWS V15.00,2015-07-02 14:34:00,
2015-07-02 10:39:00,70.7,69.8,29.92,SE,139,0.0,0.0,97,0.00,,FEW070,0.00,107.00,VWS V15.00,2015-07-02 14:39:00,
2015-07-02 10:44:00,70.8,69.9,29.92,ENE,77,1.5,0.0,97,0.00,,FEW070,0.00,56.00,VWS V15.00,2015-07-02 14:44:00,
2015-07-02 10:49:00,70.8,69.6,29.92,ENE,77,0.0,0.0,96,0.00,,FEW070,0.00,65.00,VWS V15.00,2015-07-02 14:49:00,
2015-07-02 10:54:00,70.9,69.7,29.92,NNE,32,0.0,0.0,96,0.00,,FEW070,0.00,90.00,VWS V15.00,2015-07-02 14:54:00,
2015-07-02 10:59:00,71.0,69.8,29.92,ENE,57,0.0,0.0,96,0.00,,FEW070,0.00,53.00,VWS V15.00,2015-07-02 14:59:00,
2015-07-02 11:04:00,70.9,69.7,29.92,NE,44,4.5,0.0,96,0.00,,FEW070,0.00,83.00,VWS V15.00,2015-07-02 15:04:00,
2015-07-02 11:09:00,70.9,69.7,29.92,NE,50,0.0,0.0,96,0.00,,FEW070,0.00,70.00,VWS V15.00,2015-07-02 15:09:00,
2015-07-02 11:14:00,71.0,69.8,29.92,NE,51,0.0,0.0,96,0.00,,FEW070,0.00,56.00,VWS V15.00,2015-07-02 15:14:00,
2015-07-02 11:19:00,71.0,69.8,29.92,NE,51,0.0,0.0,96,0.00,,FEW070,0.00,42.00,VWS V15.00,2015-07-02 15:19:00,
2015-07-02 11:24:00,71.0,69.8,29.92,NE,51,0.0,0.0,96,0.01,,FEW070,0.01,44.00,VWS V15.00,2015-07-02 15:24:00,
2015-07-02 11:30:00,71.1,69.9,29.92,NE,51,0.0,0.0,96,0.01,,FEW070,0.01,28.00,VWS V15.00,2015-07-02 15:30:00,
2015-07-02 11:35:00,71.0,69.8,29.92,NE,51,0.0,0.0,96,0.02,,FEW070,0.02,11.00,VWS V15.00,2015-07-02 15:35:00,
2015-07-02 11:40:00,71.0,69.8,29.92,NE,51,0.0,0.0,96,0.07,,FEW070,0.07,9.00,VWS V15.00,2015-07-02 15:40:00,
2015-07-02 11:45:00,70.9,69.7,29.92,NE,51,0.0,0.0,96,0.10,,FEW070,0.10,9.00,VWS V15.00,2015-07-02 15:45:00,
2015-07-02 11:50:00,70.9,69.7,29.92,NE,51,0.0,0.0,96,0.13,,FEW070,0.13,7.00,VWS V15.00,2015-07-02 15:50:00,
2015-07-02 11:55:00,70.8,69.6,29.92,NE,51,0.0,0.0,96,0.13,,FEW070,0.13,0.00,VWS V15.00,2015-07-02 15:55:00,
2015-07-02 12:00:00,70.8,69.6,29.92,NE,51,0.0,0.0,96,0.14,,FEW070,0.14,0.00,VWS V15.00,2015-07-02 16:00:00,
2015-07-02 12:05:00,70.7,69.5,29.92,NE,51,0.0,0.0,96,0.16,,FEW070,0.16,0.00,VWS V15.00,2015-07-02 16:05:00,
2015-07-02 12:10:00,70.7,69.5,29.92,NE,51,0.0,0.0,96,0.18,,FEW070,0.18,7.00,VWS V15.00,2015-07-02 16:10:00,
2015-07-02 12:15:00,70.6,69.4,29.92,NE,51,0.0,0.0,96,0.19,,FEW070,0.19,12.00,VWS V15.00,2015-07-02 16:15:00,
2015-07-02 12:20:00,70.5,69.6,29.92,SSE,161,0.0,0.0,97,0.20,,FEW070,0.20,16.00,VWS V15.00,2015-07-02 16:20:00,
2015-07-02 12:25:00,70.4,69.5,29.92,NE,36,1.5,0.0,97,0.31,,FEW070,0.31,25.00,VWS V15.00,2015-07-02 16:25:00,
2015-07-02 12:30:00,70.1,69.2,29.92,ENE,75,0.0,0.0,97,0.47,,FEW070,0.48,25.00,VWS V15.00,2015-07-02 16:30:00,
2015-07-02 12:36:00,69.9,69.0,29.92,ENE,75,0.0,0.0,97,0.55,,FEW070,0.56,28.00,VWS V15.00,2015-07-02 16:36:00,
2015-07-02 12:41:00,69.8,68.9,29.92,ENE,75,0.0,0.0,97,0.62,,FEW070,0.63,33.00,VWS V15.00,2015-07-02 16:41:00,
2015-07-02 12:46:00,69.7,68.8,29.92,ESE,103,1.5,0.0,97,0.71,,FEW070,0.72,39.00,VWS V15.00,2015-07-02 16:46:00,